STARLINK-31893, 59792

Orbit data source: Space-Track

STARLINK-31893, 59792 is a payload satellite owned by SpaceX/Seattle (US) in LEO that was launched on Sat, 18 May 2024 UTC via an FALCON 9 launch vehicle from the Air Force Eastern Test Range (AFETR). Payloads include a variety of satellites, spacecraft, and rockets equipped with specific instruments for various scientific and technological missions. These include communications satellites like Starlink; space stations such as the ISS; scientific satellites like the Hubble; Earth observation satellites from companies like Planet Labs, Umbra, and HawkEye 360; GPS; miniature CubeSats for education and research; and military/defense satellites.

Loading next visibility...
STARLINK-31893 details
Identifier
59792, 2024-093L
Orbit
LEO
Last TLE update1 day ago
Origin
Flag of USSpaceX/Seattle (US)
ManufacturerSpaceX/Seattle
MissionOperational spacecraft
Bus & MotorSTARLINK V2M, Unknown motor
Mass730 kg wet, ~700 kg dry
Launch date (UTC)
2024-05-18 (8 months ago)
Launch vehicle
FALCON 9
Launch site
Air Force Eastern Test Range (AFETR)
Object type
Payload
Rocket body
Debris
Shape & HBRUnknown
Radar Cross SectionLarge (>1 m²)

Expand to show TLE details & history

TLE from 1 day ago
0 STARLINK-31893
1 59792U 24093L   25022.41582207  .00031339  00000-0  40374-3 0  9990
2 59792  43.0043  10.0195 0015361 156.2234 203.9341 15.58294184 39824
Epoch: 2025-01-22T09:58Z
Definitive object data (Epoch: 2025-01-22T09:58:47.026Z)
Latitude-0.00007°
Longitude98.31546°
Altitude401.874 km
Speed7.666 km/s
True Right ascension00h 40m 04s
True Declination0° 00' 00"
Sunlit
Object was in daylight at TLE epoch
Visualization TLE readout
Latitude43.01056°
Longitude175.45514°
Altitude393.395 km
Speed7.682 km/s
Apparent Right ascension04h 31m 55s
Apparent Declination3° 14' 06"
Sunlit
Object is in full shadow
Visualization observer readout
Local Sidereal Time15:14:13
Azimuth332.852° NNW
Elevation-43.312°
Doppler factor1
Orbital elements
Apogee altitude404.968 km
Perigee altitude384.161 km
Semi-major axis6,772.701 km
Eccentricity0.0015361
Inclination43.0043°
RAAN10.0195°
Arg. of periapsis156.2234°
True anomaly203.86281°
Mean anomaly203.9341°
Eccentric anomaly203.89844°
Mean motion3.89404 °/min
BSTAR0.00040374
Orbital period92.45 mins
Loading maneuver chart data...
Loading historical data...
Loading historical data...
Loading historical data...
Loading historical data...
Loading historical data...
Loading historical data...
Loading historical data...

STARLINK-31893 Visibility forecast

Observer location: undefined°, undefined

Span
Click to sort rows by Start time (UTC) header in descending order
Start Az.
Max El. time (UTC)
Max El. Az.
Max El.
End time (UTC)
End Az.
5 mins2025-01-24 02:12:03.632Z222.694° SW2025-01-24 02:14:03.632Z169.27° S34.92°2025-01-24 02:17:03.632Z81.398° E
4 mins2025-01-24 03:50:03.632Z289.472° WNW2025-01-24 03:51:03.632Z338.581° N38.811°2025-01-24 03:54:03.632Z68.685° E
4 mins2025-01-24 05:27:03.632Z306.065° NW2025-01-24 05:28:03.632Z345.542° N37.144°2025-01-24 05:31:03.632Z84.595° E
4 mins2025-01-24 07:04:03.632Z264.612° W2025-01-24 07:05:03.632Z221.375° SW37.195°2025-01-24 07:08:03.632Z129.361° SE
|